Location: Pacheco
(37.9835°N, 122.0752°W)
Time: 03:20:51
(UTC+00:00)

Cosmos 494 Rocket - Visible Passes

Search period start: 19 July 2024 00:00
Search period end: 29 July 2024 00:00
Orbit: 739 x 769 km, 74.1° (Epoch: 18 July)

Date Brightness Start Highest point End Pass type
(mag) Time Alt. Az. Time Alt. Az. Time Alt. Az.
19 Jul 4.0 04:19:29 10° NNW 04:24:45 73° ENE 04:29:47 11° SSE visible
19 Jul 6.6 06:04:07 10° WNW 06:05:45 11° W 06:07:24 10° WSW visible
20 Jul 6.0 05:20:46 10° NW 05:24:50 23° W 05:28:52 10° SSW visible
21 Jul 5.0 04:38:49 10° NNW 04:43:47 45° WSW 04:48:42 10° S visible
22 Jul 4.1 03:57:19 10° NNW 04:02:36 87° WSW 04:07:47 10° SSE visible
23 Jul 6.4 04:59:07 10° NW 05:02:33 18° W 05:05:57 10° SW visible
24 Jul 5.5 04:16:50 10° NW 04:21:33 34° W 04:26:11 10° SSW visible
26 Jul 6.7 04:37:44 10° WNW 04:40:13 14° W 04:42:43 10° WSW visible
27 Jul 6.1 03:54:56 10° NW 03:59:16 27° W 04:03:32 10° SSW visible
